TimeMST,TemperatureF,Dew PointF,Humidity,Sea Level PressureIn,VisibilityMPH,Wind Direction,Wind SpeedMPH,Gust SpeedMPH,PrecipitationIn,Events,Conditions,WindDirDegrees,DateUTC
12:53 AM,48.0,33.1,56,30.11,10.0,SE,4.6,-,N/A,,Clear,140,2012-01-25 07:53:00
1:53 AM,44.1,33.1,65,30.12,10.0,Calm,Calm,-,N/A,,Clear,0,2012-01-25 08:53:00
2:53 AM,42.1,33.1,70,30.14,10.0,Calm,Calm,-,N/A,,Clear,0,2012-01-25 09:53:00
3:53 AM,37.9,32.0,79,30.14,10.0,SSE,3.5,-,N/A,,Clear,160,2012-01-25 10:53:00
4:53 AM,37.9,32.0,79,30.13,10.0,SE,4.6,-,N/A,,Clear,130,2012-01-25 11:53:00
5:53 AM,39.0,32.0,76,30.14,10.0,Calm,Calm,-,N/A,,Clear,0,2012-01-25 12:53:00
6:53 AM,36.0,30.0,79,30.17,10.0,SE,6.9,-,N/A,,Clear,140,2012-01-25 13:53:00
7:53 AM,37.0,30.0,76,30.19,10.0,SSE,4.6,-,N/A,,Clear,150,2012-01-25 14:53:00
8:53 AM,42.1,30.9,65,30.19,10.0,Calm,Calm,-,N/A,,Clear,0,2012-01-25 15:53:00
9:53 AM,48.9,32.0,52,30.18,10.0,Calm,Calm,-,N/A,,Clear,0,2012-01-25 16:53:00
10:53 AM,55.0,32.0,42,30.17,10.0,Calm,Calm,-,N/A,,Clear,0,2012-01-25 17:53:00
11:53 AM,57.2,30.2,36,30.20,10.0,North,6.9,-,N/A,,Clear,10,2012-01-25 18:53:00
12:45 PM,59.0,30.2,34,30.18,10.0,NW,9.2,-,N/A,,Clear,320,2012-01-25 19:45:00
12:53 PM,60.1,28.9,31,30.12,10.0,NNE,8.1,-,N/A,,Clear,20,2012-01-25 19:53:00
1:53 PM,63.0,28.9,28,30.10,10.0,North,9.2,-,N/A,,Clear,350,2012-01-25 20:53:00
2:53 PM,64.0,28.9,27,30.10,10.0,NNW,10.4,-,N/A,,Clear,340,2012-01-25 21:53:00
3:53 PM,63.0,28.9,28,30.09,10.0,NNW,8.1,-,N/A,,Clear,340,2012-01-25 22:53:00
4:53 PM,62.1,30.0,30,30.09,10.0,NNW,10.4,-,N/A,,Clear,340,2012-01-25 23:53:00
5:53 PM,59.0,30.9,35,30.10,10.0,NNW,6.9,-,N/A,,Clear,330,2012-01-26 00:53:00
6:53 PM,57.0,30.0,36,30.11,10.0,WNW,4.6,-,N/A,,Clear,300,2012-01-26 01:53:00
7:53 PM,51.8,30.2,44,30.16,10.0,WSW,5.8,-,N/A,,Clear,250,2012-01-26 02:53:00
8:53 PM,50.0,30.0,46,30.14,10.0,SW,4.6,-,N/A,,Clear,220,2012-01-26 03:53:00
9:53 PM,48.0,30.0,50,30.14,10.0,Calm,Calm,-,N/A,,Clear,0,2012-01-26 04:53:00
10:53 PM,45.0,28.9,53,30.15,10.0,Calm,Calm,-,N/A,,Clear,0,2012-01-26 05:53:00
11:53 PM,43.0,28.9,58,30.14,10.0,SE,4.6,-,N/A,,Clear,140,2012-01-26 06:53:00